Вернуться в каталог

STARLINK-33791

АктивенСвязьVLEO
NORAD 63594·PAYLOAD·🇺🇸 United States

Запущен Apr 14, 2025 с Cape Canaveral Space Force Station

Loading…

Ближайшие Пролёты (ближайшие 24 часа)

TLE

СвежийSource: CelesTrak SupGP

Эпоха: Sep 14, 2026, 21:05 UTC

1 63594C 25076AB  26257.87895833 -.00024852  00000+0 -90020-3 0  2573
2 63594  43.0017 333.4515 0001481 271.3453  33.7967 15.27588492    14

Отслеживайте STARLINK-33791 в реальном времени с AllMySat

Download on the App Store